FALCON 9 DEB (46387 NORAD) Tracking and Keplerian Element Data

This shows tracking and keplerian element data for the satellite.

Feedback or suggestion? Click here.




ElementValue
Catalog46387
NameFALCON 9 DEB
Epoch Orbit463
Epoch Day272.29534807
Epoch Year2020
RAAN301.5101
Inclination52.9851
Eccentricity0.0011919
Argument of Perigee135.5407
Mean Anonmoly224.6599
Mean Motion16.4359061
Decay Rate0.0960003
L11 46387U 20062BQ 20272.29534807 .09600030 12323-4 31990-3 0 9997
L22 46387 52.9851 301.5101 0011919 135.5407 224.6599 16.43590610 4632

Live tracking and technical data element details for FALCON 9 DEB (NORAD 46387). FALCON 9 DEB can be tracked NOW for your location showing map with azimuth and elevation plus other details from your city location.

Track the satellite on the map from your city or location and see movement details for azimuth, elevation, latitude, longitude, range, height, and movement on the map or in text.







IsCatalogInMostPopularTable: catalog: 46387, numindb: 66
Update: records affected: 1



GetName: 46387 FALCON 9 DEB

Hit Count: updated at: Thu, 28 Jan 2021 12:36:35 GMT